Flag for U.S.A. Weather past 2 weeks in Rochester, New York, U.S.A.

Now
68 °F

Low clouds.


Feels Like: 68 °F
Forecast: 64 / 74 °F
Wind: No wind

Location: Greater Rochester International Airport

Current Time: Aug 23, 2014 at 4:19:01 AM

Latest Report: Aug 23, 2014 at 3:54 AM


Visibility: 7 mi

Pressure: 30.00 "Hg

Humidity: 93%

Dew point: 66 °F

Location of RochesterLocation

Historic Weather in Rochester — Graph

°F

Rochester temperature yesterday

Maximum temperature yesterday: 79 °F (at 1:54 PM)
Minimum temperature yesterday: 64 °F (at 4:54 AM)
Average temperature yesterday: 71 °F

Past Weeks' High & Low Weather Summary

 TemperatureHumidityPressure
High83 °F (Aug 11, 1:54 PM)97% (Aug 21, 3:54 AM)30.19 "Hg (Aug 21, 3:54 AM)
Low52 °F (Aug 16, 4:54 AM)36% (Aug 11, 2:54 PM)29.71 "Hg (Aug 13, 3:54 AM)
Average67 °F74%29.96 "Hg
* Reported Aug 8 2:54 AM — Aug 23 2:54 AM, Rochester, Weather by CustomWeather, © 2014

Note: Actual official high and low records may vary slightly from our data, if they occured in-between our weather recording intervals... More about our weather records

Advertising

Rochester weather history for previous 24 hours

 ConditionsComfort  
Time TempWeatherWind HumidityBarometerVisibility
2:54 AM
Aug 23
68 °FLow clouds.5 mph93%30.01 "Hg7 mi
1:54 AM69 °FMostly cloudy.3 mph90%30.01 "Hg8 mi
1:01 AM70 °FMostly cloudy.5 mph88%30.01 "Hg7 mi
11:57 PM
Aug 22
70 °FFog.7 mph88%30.01 "Hg5 mi
10:54 PM69 °FPassing clouds.5 mph90%30.01 "Hg10 mi
10:00 PM70 °FPassing clouds.5 mph88%30.01 "Hg10 mi
8:54 PM72 °FPartly sunny.6 mph78%30.01 "Hg10 mi
7:54 PM72 °FBroken clouds.8 mph76%29.99 "Hg10 mi
6:54 PM74 °FScattered clouds.8 mph76%29.99 "Hg10 mi
5:54 PM76 °FPassing clouds.9 mph72%29.98 "Hg10 mi
4:54 PM76 °FScattered clouds.10 mph74%29.98 "Hg10 mi
3:54 PM77 °FPassing clouds.12 mph71%29.98 "Hg10 mi
2:54 PM78 °FScattered clouds.12 mph69%29.98 "Hg10 mi
1:54 PM79 °FBroken clouds.9 mph72%29.98 "Hg10 mi
12:54 PM78 °FPartly sunny.6 mph69%29.98 "Hg10 mi
11:54 AM75 °FPartly sunny.8 mph74%29.99 "Hg10 mi
10:54 AM73 °FMore clouds than sun.5 mph79%30.01 "Hg10 mi
9:54 AM70 °FOvercast.3 mph84%30.01 "Hg8 mi
8:54 AM69 °FOvercast.3 mph87%30.00 "Hg9 mi
7:54 AM66 °FFog.No wind93%29.99 "Hg6 mi
6:54 AM65 °FFog.No wind94%29.98 "Hg4 mi
5:54 AM65 °FFog.3 mph94%29.97 "Hg6 mi
4:54 AM64 °FFog.No wind97%29.96 "Hg5 mi
Weather by CustomWeather, © 2014

See weather overviewHow to use our weather pages